Time,TemperatureF,DewpointF,PressureIn,WindDirection,WindDirectionDegrees,WindSpeedMPH,WindSpeedGustMPH,Humidity,HourlyPrecipIn,Conditions,Clouds,dailyrainin,SoftwareType,DateUTC
2013-09-17 00:01:00,59.8,54.3,29.95,North,0,0.4,0.4,82,0.00,,,0.00,WUHU216HW,2013-09-17 07:01:00,
2013-09-17 00:06:00,59.8,54.3,29.94,North,0,0.2,0.4,82,0.00,,,0.00,WUHU216HW,2013-09-17 07:06:00,
2013-09-17 00:11:00,59.8,54.3,29.94,North,0,0.0,0.4,82,0.00,,,0.00,WUHU216HW,2013-09-17 07:11:00,
2013-09-17 00:16:00,59.8,54.3,29.94,ENE,68,1.1,1.1,82,0.00,,,0.00,WUHU216HW,2013-09-17 07:16:00,
2013-09-17 00:21:00,59.6,54.1,29.94,ENE,68,0.2,1.1,82,0.00,,,0.00,WUHU216HW,2013-09-17 07:21:00,
2013-09-17 00:26:00,59.6,54.1,29.94,NE,45,0.7,1.1,82,0.00,,,0.00,WUHU216HW,2013-09-17 07:26:00,
2013-09-17 00:31:00,59.6,54.1,29.94,NNE,23,0.4,0.7,82,0.00,,,0.00,WUHU216HW,2013-09-17 07:31:00,
2013-09-17 00:36:00,59.4,53.7,29.94,NE,45,2.0,3.4,81,0.00,,,0.00,WUHU216HW,2013-09-17 07:36:00,
2013-09-17 00:41:00,59.4,53.7,29.93,North,0,0.4,3.4,81,0.00,,,0.00,WUHU216HW,2013-09-17 07:41:00,
2013-09-17 00:46:00,59.4,53.7,29.93,NNE,23,0.4,2.0,81,0.00,,,0.00,WUHU216HW,2013-09-17 07:46:00,
2013-09-17 00:51:00,59.4,53.7,29.93,NE,45,0.2,0.4,81,0.00,,,0.00,WUHU216HW,2013-09-17 07:51:00,
2013-09-17 00:56:00,59.4,53.7,29.94,SE,135,0.9,0.9,81,0.00,,,0.00,WUHU216HW,2013-09-17 07:56:00,
2013-09-17 01:01:00,59.4,53.7,29.93,East,90,0.2,2.2,81,0.00,,,0.00,WUHU216HW,2013-09-17 08:01:00,
2013-09-17 01:06:00,59.4,53.7,29.93,ESE,113,0.2,2.2,81,0.00,,,0.00,WUHU216HW,2013-09-17 08:06:00,
2013-09-17 01:11:00,59.4,53.7,29.93,East,90,1.3,1.3,81,0.00,,,0.00,WUHU216HW,2013-09-17 08:11:00,
2013-09-17 01:16:00,59.4,53.7,29.93,North,0,0.4,1.3,81,0.00,,,0.00,WUHU216HW,2013-09-17 08:16:00,
2013-09-17 01:21:00,59.4,53.7,29.93,North,0,1.1,1.3,81,0.00,,,0.00,WUHU216HW,2013-09-17 08:21:00,
2013-09-17 01:26:00,59.4,53.3,29.93,NE,45,2.5,2.5,80,0.00,,,0.00,WUHU216HW,2013-09-17 08:26:00,
2013-09-17 01:31:00,59.4,53.3,29.93,ENE,68,0.4,2.5,80,0.00,,,0.00,WUHU216HW,2013-09-17 08:31:00,
2013-09-17 01:36:00,59.4,53.3,29.93,NE,45,1.1,2.5,80,0.00,,,0.00,WUHU216HW,2013-09-17 08:36:00,
2013-09-17 01:41:00,59.4,53.3,29.93,NE,45,0.4,1.1,80,0.00,,,0.00,WUHU216HW,2013-09-17 08:41:00,
2013-09-17 01:46:00,59.4,53.3,29.93,North,0,0.7,1.1,80,0.00,,,0.00,WUHU216HW,2013-09-17 08:46:00,
2013-09-17 01:51:00,59.4,53.7,29.93,North,0,2.5,2.5,81,0.00,,,0.00,WUHU216HW,2013-09-17 08:51:00,
2013-09-17 01:56:00,59.4,53.7,29.93,ENE,68,0.7,2.5,81,0.00,,,0.00,WUHU216HW,2013-09-17 08:56:00,
2013-09-17 02:01:00,59.4,53.7,29.92,North,0,0.0,2.5,81,0.00,,,0.00,WUHU216HW,2013-09-17 09:01:00,
2013-09-17 02:06:00,59.4,53.7,29.92,NNE,23,1.1,1.1,81,0.00,,,0.00,WUHU216HW,2013-09-17 09:06:00,
2013-09-17 02:11:00,59.2,53.5,29.92,NNE,23,0.0,1.1,81,0.00,,,0.00,WUHU216HW,2013-09-17 09:11:00,
2013-09-17 02:16:00,59.2,53.5,29.92,North,0,0.4,1.6,81,0.00,,,0.00,WUHU216HW,2013-09-17 09:16:00,
2013-09-17 02:21:00,59.0,53.3,29.92,NNE,23,1.6,1.6,81,0.00,,,0.00,WUHU216HW,2013-09-17 09:21:00,
2013-09-17 02:26:00,59.0,53.3,29.92,NE,45,2.2,2.5,81,0.00,,,0.00,WUHU216HW,2013-09-17 09:26:00,
2013-09-17 02:31:00,59.0,53.3,29.92,North,0,0.9,2.5,81,0.00,,,0.00,WUHU216HW,2013-09-17 09:31:00,
2013-09-17 02:36:00,59.0,53.3,29.92,NE,45,2.5,2.5,81,0.00,,,0.00,WUHU216HW,2013-09-17 09:36:00,
2013-09-17 02:41:00,59.0,53.3,29.92,North,0,2.0,2.5,81,0.00,,,0.00,WUHU216HW,2013-09-17 09:41:00,
2013-09-17 02:46:00,59.0,53.3,29.92,North,0,1.6,2.5,81,0.00,,,0.00,WUHU216HW,2013-09-17 09:46:00,
2013-09-17 02:51:00,59.0,53.3,29.92,North,0,0.9,2.0,81,0.00,,,0.00,WUHU216HW,2013-09-17 09:51:00,
2013-09-17 02:56:00,59.0,53.3,29.92,NNE,23,2.0,2.0,81,0.00,,,0.00,WUHU216HW,2013-09-17 09:56:00,
2013-09-17 03:01:00,59.0,53.3,29.92,NNE,23,1.1,2.0,81,0.00,,,0.00,WUHU216HW,2013-09-17 10:01:00,
2013-09-17 03:06:00,59.0,53.3,29.92,NNE,23,0.2,2.0,81,0.00,,,0.00,WUHU216HW,2013-09-17 10:06:00,
2013-09-17 03:11:00,59.0,53.3,29.91,NNE,23,1.1,1.1,81,0.00,,,0.00,WUHU216HW,2013-09-17 10:11:00,
2013-09-17 03:16:00,59.0,53.3,29.91,NNE,23,0.4,1.1,81,0.00,,,0.00,WUHU216HW,2013-09-17 10:16:00,
2013-09-17 03:21:00,59.0,53.3,29.91,NNE,23,1.1,1.8,81,0.00,,,0.00,WUHU216HW,2013-09-17 10:21:00,
2013-09-17 03:26:00,59.0,53.3,29.92,NE,45,1.8,1.8,81,0.00,,,0.00,WUHU216HW,2013-09-17 10:26:00,
2013-09-17 03:31:00,59.0,53.3,29.91,NNE,23,0.4,1.8,81,0.00,,,0.00,WUHU216HW,2013-09-17 10:31:00,
2013-09-17 03:36:00,59.0,53.3,29.91,NNE,23,0.2,1.8,81,0.00,,,0.00,WUHU216HW,2013-09-17 10:36:00,
2013-09-17 03:41:00,59.0,53.3,29.91,NNE,23,0.4,0.9,81,0.00,,,0.00,WUHU216HW,2013-09-17 10:41:00,
2013-09-17 03:46:00,59.0,53.3,29.91,NE,45,1.6,1.6,81,0.00,,,0.00,WUHU216HW,2013-09-17 10:46:00,
2013-09-17 03:51:00,59.0,53.3,29.91,NNW,338,0.7,1.6,81,0.00,,,0.00,WUHU216HW,2013-09-17 10:51:00,
2013-09-17 03:56:00,58.9,53.1,29.91,NNW,338,0.7,2.0,81,0.00,,,0.00,WUHU216HW,2013-09-17 10:56:00,
2013-09-17 04:01:00,58.9,53.1,29.90,North,0,0.4,2.0,81,0.00,,,0.00,WUHU216HW,2013-09-17 11:01:00,
2013-09-17 04:06:00,58.9,53.1,29.90,NE,45,0.9,0.9,81,0.00,,,0.00,WUHU216HW,2013-09-17 11:06:00,
2013-09-17 04:11:00,58.9,53.1,29.90,NNE,23,1.3,1.3,81,0.00,,,0.00,WUHU216HW,2013-09-17 11:11:00,
2013-09-17 04:16:00,58.9,53.1,29.90,North,0,0.4,1.3,81,0.00,,,0.00,WUHU216HW,2013-09-17 11:16:00,
2013-09-17 04:21:00,58.9,53.1,29.90,NNE,23,0.4,1.3,81,0.00,,,0.00,WUHU216HW,2013-09-17 11:21:00,
2013-09-17 04:26:00,58.9,53.1,29.90,NNE,23,0.4,0.7,81,0.00,,,0.00,WUHU216HW,2013-09-17 11:26:00,
2013-09-17 04:31:00,58.9,53.1,29.90,North,0,0.7,0.7,81,0.00,,,0.00,WUHU216HW,2013-09-17 11:31:00,
2013-09-17 04:36:00,58.9,53.1,29.90,ENE,68,0.0,0.7,81,0.00,,,0.00,WUHU216HW,2013-09-17 11:36:00,
2013-09-17 04:41:00,58.9,53.1,29.90,ENE,68,0.4,0.7,81,0.00,,,0.00,WUHU216HW,2013-09-17 11:41:00,
2013-09-17 04:46:00,58.7,53.2,29.90,North,0,0.0,1.1,82,0.00,,,0.00,WUHU216HW,2013-09-17 11:46:00,
2013-09-17 04:51:00,58.7,53.2,29.90,North,0,0.0,1.1,82,0.00,,,0.00,WUHU216HW,2013-09-17 11:51:00,
2013-09-17 04:56:00,58.7,53.2,29.90,North,0,0.0,0.0,82,0.00,,,0.00,WUHU216HW,2013-09-17 11:56:00,
2013-09-17 05:01:00,58.7,53.2,29.90,NNW,338,0.0,0.4,82,0.00,,,0.00,WUHU216HW,2013-09-17 12:01:00,
2013-09-17 05:06:00,58.7,53.2,29.90,ENE,68,0.2,0.7,82,0.00,,,0.00,WUHU216HW,2013-09-17 12:06:00,
2013-09-17 05:11:00,58.7,53.2,29.90,ENE,68,0.9,0.9,82,0.00,,,0.00,WUHU216HW,2013-09-17 12:11:00,
2013-09-17 05:16:00,58.7,53.2,29.90,NW,315,3.6,3.6,82,0.00,,,0.00,WUHU216HW,2013-09-17 12:16:00,
2013-09-17 05:21:00,58.7,53.2,29.89,North,0,0.9,3.6,82,0.00,,,0.00,WUHU216HW,2013-09-17 12:21:00,
2013-09-17 05:26:00,58.5,53.0,29.90,North,0,1.3,3.6,82,0.00,,,0.00,WUHU216HW,2013-09-17 12:26:00,
2013-09-17 05:31:00,58.5,53.4,29.89,North,0,0.0,1.3,83,0.00,,,0.00,WUHU216HW,2013-09-17 12:31:00,
2013-09-17 05:36:00,58.5,53.4,29.89,North,0,0.0,1.3,83,0.00,,,0.00,WUHU216HW,2013-09-17 12:36:00,
2013-09-17 05:41:00,58.5,53.4,29.89,North,0,0.0,0.0,83,0.00,,,0.00,WUHU216HW,2013-09-17 12:41:00,
2013-09-17 05:46:00,58.5,53.4,29.90,NNE,23,0.7,0.7,83,0.00,,,0.00,WUHU216HW,2013-09-17 12:46:00,
2013-09-17 05:51:00,58.5,53.4,29.89,NNE,23,0.9,0.9,83,0.00,,,0.00,WUHU216HW,2013-09-17 12:51:00,
2013-09-17 05:56:00,58.5,53.4,29.89,North,0,0.0,0.9,83,0.00,,,0.00,WUHU216HW,2013-09-17 12:56:00,
2013-09-17 06:01:00,58.3,53.2,29.89,NNE,23,0.4,0.9,83,0.00,,,0.00,WUHU216HW,2013-09-17 13:01:00,
2013-09-17 06:06:00,58.3,53.2,29.89,North,0,0.2,0.7,83,0.00,,,0.00,WUHU216HW,2013-09-17 13:06:00,
2013-09-17 06:12:00,58.3,53.2,29.89,North,0,0.4,0.7,83,0.00,,,0.00,WUHU216HW,2013-09-17 13:12:00,
2013-09-17 06:17:00,58.3,53.2,29.89,NE,45,0.0,0.4,83,0.00,,,0.00,WUHU216HW,2013-09-17 13:17:00,
2013-09-17 06:22:00,58.3,53.2,29.89,NE,45,0.0,0.2,83,0.00,,,0.00,WUHU216HW,2013-09-17 13:22:00,
2013-09-17 06:27:00,58.3,53.2,29.89,North,0,0.7,0.7,83,0.00,,,0.00,WUHU216HW,2013-09-17 13:27:00,
2013-09-17 06:31:00,58.3,53.2,29.89,NNW,338,0.4,0.7,83,0.00,,,0.00,WUHU216HW,2013-09-17 13:31:00,
2013-09-17 06:36:00,58.3,53.5,29.89,NNW,338,0.0,0.4,84,0.00,,,0.00,WUHU216HW,2013-09-17 13:36:00,
2013-09-17 06:42:00,58.3,53.5,29.89,NNW,338,0.0,0.9,84,0.00,,,0.00,WUHU216HW,2013-09-17 13:42:00,
2013-09-17 06:46:00,58.3,53.5,29.89,NNW,338,0.0,0.9,84,0.00,,,0.00,WUHU216HW,2013-09-17 13:46:00,
2013-09-17 06:51:00,58.3,53.5,29.89,NNW,338,0.0,0.0,84,0.00,,,0.00,WUHU216HW,2013-09-17 13:51:00,
2013-09-17 06:56:00,58.3,53.5,29.90,NNW,338,0.0,0.0,84,0.00,,,0.00,WUHU216HW,2013-09-17 13:56:00,
2013-09-17 07:01:00,58.3,53.5,29.90,NNW,338,0.0,0.0,84,0.00,,,0.00,WUHU216HW,2013-09-17 14:01:00,
2013-09-17 07:06:00,58.3,53.5,29.90,NNW,338,0.0,0.0,84,0.00,,,0.00,WUHU216HW,2013-09-17 14:06:00,
2013-09-17 07:12:00,58.3,53.5,29.90,NNW,338,0.0,0.0,84,0.00,,,0.00,WUHU216HW,2013-09-17 14:12:00,
2013-09-17 07:17:00,58.3,53.5,29.90,NNW,338,0.0,0.0,84,0.00,,,0.00,WUHU216HW,2013-09-17 14:17:00,
2013-09-17 07:22:00,58.3,53.5,29.90,East,90,0.0,0.0,84,0.00,,,0.00,WUHU216HW,2013-09-17 14:22:00,
2013-09-17 07:26:00,58.5,53.6,29.89,NE,45,0.0,0.4,84,0.00,,,0.00,WUHU216HW,2013-09-17 14:26:00,
2013-09-17 07:31:00,58.5,53.6,29.89,NE,45,0.0,0.4,84,0.00,,,0.00,WUHU216HW,2013-09-17 14:31:00,
2013-09-17 07:36:00,58.5,53.6,29.89,North,0,0.2,0.2,84,0.00,,,0.00,WUHU216HW,2013-09-17 14:36:00,
2013-09-17 07:41:00,58.7,53.8,29.89,NE,45,0.2,0.9,84,0.00,,,0.00,WUHU216HW,2013-09-17 14:41:00,
2013-09-17 07:46:00,58.7,53.8,29.89,North,0,0.9,1.1,84,0.00,,,0.00,WUHU216HW,2013-09-17 14:46:00,
2013-09-17 07:52:00,58.7,53.6,29.89,NE,45,0.0,1.1,83,0.00,,,0.00,WUHU216HW,2013-09-17 14:52:00,
2013-09-17 07:56:00,58.7,53.6,29.89,NE,45,0.4,0.9,83,0.00,,,0.00,WUHU216HW,2013-09-17 14:56:00,
2013-09-17 08:01:00,58.7,53.6,29.89,North,0,0.0,0.4,83,0.00,,,0.00,WUHU216HW,2013-09-17 15:01:00,
2013-09-17 08:06:00,58.7,53.6,29.89,NE,45,0.4,0.4,83,0.00,,,0.00,WUHU216HW,2013-09-17 15:06:00,
2013-09-17 08:11:00,58.7,53.6,29.89,NE,45,1.1,1.1,83,0.00,,,0.00,WUHU216HW,2013-09-17 15:11:00,
2013-09-17 08:17:00,58.7,53.6,29.89,East,90,0.4,1.3,83,0.00,,,0.00,WUHU216HW,2013-09-17 15:17:00,
2013-09-17 08:22:00,58.7,53.6,29.89,East,90,0.0,1.3,83,0.00,,,0.00,WUHU216HW,2013-09-17 15:22:00,
2013-09-17 08:27:00,58.9,53.7,29.89,East,90,0.0,0.4,83,0.00,,,0.00,WUHU216HW,2013-09-17 15:27:00,
2013-09-17 08:32:00,59.0,53.9,29.89,East,90,0.9,1.1,83,0.00,,,0.00,WUHU216HW,2013-09-17 15:32:00,
2013-09-17 08:37:00,59.0,53.9,29.89,East,90,0.0,1.1,83,0.00,,,0.00,WUHU216HW,2013-09-17 15:37:00,
2013-09-17 08:42:00,59.2,54.1,29.89,NNE,23,0.4,0.9,83,0.00,,,0.00,WUHU216HW,2013-09-17 15:42:00,
2013-09-17 08:47:00,59.2,54.1,29.89,NNE,23,0.4,0.7,83,0.00,,,0.00,WUHU216HW,2013-09-17 15:47:00,
2013-09-17 08:52:00,59.2,54.1,29.89,NNE,23,0.2,0.7,83,0.00,,,0.00,WUHU216HW,2013-09-17 15:52:00,
2013-09-17 08:57:00,59.2,54.1,29.89,South,180,0.0,0.7,83,0.00,,,0.00,WUHU216HW,2013-09-17 15:57:00,
2013-09-17 09:02:00,59.2,54.1,29.89,SE,135,0.4,0.7,83,0.00,,,0.00,WUHU216HW,2013-09-17 16:02:00,
2013-09-17 09:07:00,59.4,53.9,29.89,NNE,23,0.4,0.4,82,0.00,,,0.00,WUHU216HW,2013-09-17 16:07:00,
2013-09-17 09:12:00,59.4,53.9,29.89,NNE,23,0.4,0.7,82,0.00,,,0.00,WUHU216HW,2013-09-17 16:12:00,
2013-09-17 09:17:00,59.4,53.9,29.89,NNE,23,0.0,0.7,82,0.00,,,0.00,WUHU216HW,2013-09-17 16:17:00,
2013-09-17 09:21:00,59.4,53.9,29.89,NNE,23,0.7,0.7,82,0.00,,,0.00,WUHU216HW,2013-09-17 16:21:00,
2013-09-17 09:26:00,59.4,53.9,29.88,ENE,68,0.2,0.7,82,0.00,,,0.00,WUHU216HW,2013-09-17 16:26:00,
2013-09-17 09:31:00,59.4,53.9,29.89,ENE,68,0.4,0.7,82,0.00,,,0.00,WUHU216HW,2013-09-17 16:31:00,
2013-09-17 09:36:00,59.4,53.9,29.89,NNE,23,0.9,0.9,82,0.00,,,0.00,WUHU216HW,2013-09-17 16:36:00,
2013-09-17 09:41:00,59.6,54.1,29.89,North,0,1.6,1.8,82,0.00,,,0.00,WUHU216HW,2013-09-17 16:41:00,
2013-09-17 09:46:00,59.6,54.1,29.89,NNE,23,0.4,1.8,82,0.00,,,0.00,WUHU216HW,2013-09-17 16:46:00,
2013-09-17 09:51:00,59.6,53.8,29.89,NW,315,0.9,1.6,81,0.00,,,0.00,WUHU216HW,2013-09-17 16:51:00,
2013-09-17 09:56:00,59.6,53.8,29.89,NE,45,0.9,1.6,81,0.00,,,0.00,WUHU216HW,2013-09-17 16:56:00,
2013-09-17 10:01:00,59.6,53.8,29.89,North,0,0.4,1.6,81,0.00,,,0.00,WUHU216HW,2013-09-17 17:01:00,
2013-09-17 10:06:00,59.8,54.0,29.89,NNE,23,0.7,0.9,81,0.00,,,0.00,WUHU216HW,2013-09-17 17:06:00,
2013-09-17 10:11:00,59.8,54.0,29.89,NW,315,0.4,0.7,81,0.00,,,0.00,WUHU216HW,2013-09-17 17:11:00,
2013-09-17 10:16:00,59.9,54.2,29.88,NE,45,2.2,2.2,81,0.00,,,0.00,WUHU216HW,2013-09-17 17:16:00,
2013-09-17 10:21:00,59.9,53.8,29.89,North,0,0.9,2.2,80,0.00,,,0.00,WUHU216HW,2013-09-17 17:21:00,
2013-09-17 10:26:00,60.1,54.0,29.89,East,90,0.4,2.2,80,0.00,,,0.00,WUHU216HW,2013-09-17 17:26:00,
2013-09-17 10:31:00,59.9,53.8,29.89,East,90,0.4,0.9,80,0.00,,,0.00,WUHU216HW,2013-09-17 17:31:00,
2013-09-17 10:36:00,60.1,54.0,29.89,South,180,1.3,1.3,80,0.00,,,0.00,WUHU216HW,2013-09-17 17:36:00,
2013-09-17 10:41:00,60.1,54.0,29.89,SSW,203,0.0,1.3,80,0.00,,,0.00,WUHU216HW,2013-09-17 17:41:00,
2013-09-17 10:46:00,60.3,54.2,29.89,SSW,203,0.0,1.3,80,0.00,,,0.00,WUHU216HW,2013-09-17 17:46:00,
2013-09-17 10:51:00,60.3,54.2,29.89,NNE,23,0.9,1.1,80,0.00,,,0.00,WUHU216HW,2013-09-17 17:51:00,
2013-09-17 10:56:00,60.5,54.4,29.89,North,0,1.1,1.1,80,0.00,,,0.00,WUHU216HW,2013-09-17 17:56:00,
2013-09-17 11:02:00,60.5,54.4,29.89,North,0,0.0,1.3,80,0.00,,,0.00,WUHU216HW,2013-09-17 18:02:00,
2013-09-17 11:07:00,60.7,54.5,29.89,NE,45,1.3,1.3,80,0.00,,,0.00,WUHU216HW,2013-09-17 18:07:00,
2013-09-17 11:12:00,60.7,54.2,29.89,North,0,1.1,1.6,79,0.00,,,0.00,WUHU216HW,2013-09-17 18:12:00,
2013-09-17 11:17:00,60.7,54.2,29.89,East,90,0.0,1.6,79,0.00,,,0.00,WUHU216HW,2013-09-17 18:17:00,
2013-09-17 11:22:00,60.7,54.2,29.89,East,90,0.4,1.1,79,0.00,,,0.00,WUHU216HW,2013-09-17 18:22:00,
2013-09-17 11:27:00,60.8,54.4,29.89,South,180,1.3,1.3,79,0.00,,,0.00,WUHU216HW,2013-09-17 18:27:00,
2013-09-17 11:32:00,60.8,54.4,29.89,South,180,1.1,1.3,79,0.00,,,0.00,WUHU216HW,2013-09-17 18:32:00,
2013-09-17 11:37:00,61.4,55.2,29.89,SSE,158,0.0,1.3,80,0.00,,,0.00,WUHU216HW,2013-09-17 18:37:00,
2013-09-17 11:42:00,61.6,55.4,29.89,SSE,158,1.1,1.3,80,0.00,,,0.00,WUHU216HW,2013-09-17 18:42:00,
2013-09-17 11:47:00,61.6,55.4,29.89,South,180,1.8,1.8,80,0.00,,,0.00,WUHU216HW,2013-09-17 18:47:00,
2013-09-17 11:52:00,61.7,55.5,29.89,South,180,0.4,1.8,80,0.00,,,0.00,WUHU216HW,2013-09-17 18:52:00,
2013-09-17 11:57:00,61.9,55.7,29.89,SSE,158,0.2,1.8,80,0.00,,,0.00,WUHU216HW,2013-09-17 18:57:00,
2013-09-17 12:02:00,62.1,55.5,29.89,WSW,248,0.4,0.4,79,0.00,,,0.00,WUHU216HW,2013-09-17 19:02:00,
2013-09-17 12:07:00,62.3,56.0,29.89,SW,225,0.7,0.7,80,0.00,,,0.00,WUHU216HW,2013-09-17 19:07:00,
2013-09-17 12:12:00,62.3,56.0,29.88,SSE,158,1.1,1.1,80,0.00,,,0.00,WUHU216HW,2013-09-17 19:12:00,
2013-09-17 12:17:00,62.5,55.8,29.88,WNW,293,0.7,1.3,79,0.00,,,0.00,WUHU216HW,2013-09-17 19:17:00,
2013-09-17 12:22:00,62.6,56.0,29.88,West,270,0.9,1.3,79,0.00,,,0.00,WUHU216HW,2013-09-17 19:22:00,
2013-09-17 12:27:00,62.6,56.0,29.88,SSE,158,0.4,1.1,79,0.00,,,0.00,WUHU216HW,2013-09-17 19:27:00,
2013-09-17 12:32:00,62.8,56.2,29.88,SSE,158,0.0,0.9,79,0.00,,,0.00,WUHU216HW,2013-09-17 19:32:00,
2013-09-17 12:37:00,63.0,56.3,29.89,NE,45,0.7,1.1,79,0.00,,,0.00,WUHU216HW,2013-09-17 19:37:00,
2013-09-17 12:42:00,63.0,56.3,29.89,SSW,203,1.6,1.6,79,0.00,,,0.00,WUHU216HW,2013-09-17 19:42:00,
2013-09-17 12:47:00,63.2,56.5,29.89,SSE,158,2.0,2.0,79,0.00,,,0.00,WUHU216HW,2013-09-17 19:47:00,
2013-09-17 12:52:00,63.2,56.2,29.89,WSW,248,1.8,2.0,78,0.00,,,0.00,WUHU216HW,2013-09-17 19:52:00,
2013-09-17 12:57:00,63.0,55.6,29.89,SSE,158,0.4,2.0,77,0.00,,,0.00,WUHU216HW,2013-09-17 19:57:00,
2013-09-17 13:02:00,63.0,55.6,29.89,SSE,158,0.7,1.8,77,0.00,,,0.00,WUHU216HW,2013-09-17 20:02:00,
2013-09-17 13:07:00,63.2,55.8,29.89,SSW,203,0.9,1.3,77,0.00,,,0.00,WUHU216HW,2013-09-17 20:07:00,
2013-09-17 13:12:00,63.0,55.3,29.89,South,180,0.4,0.9,76,0.00,,,0.00,WUHU216HW,2013-09-17 20:12:00,
2013-09-17 13:17:00,63.2,55.4,29.89,South,180,1.1,1.6,76,0.00,,,0.00,WUHU216HW,2013-09-17 20:17:00,
2013-09-17 13:22:00,63.2,55.4,29.89,South,180,0.4,1.6,76,0.00,,,0.00,WUHU216HW,2013-09-17 20:22:00,
2013-09-17 13:27:00,63.2,55.4,29.89,SW,225,0.9,1.1,76,0.00,,,0.00,WUHU216HW,2013-09-17 20:27:00,
2013-09-17 13:32:00,63.4,55.6,29.89,SW,225,1.1,1.1,76,0.00,,,0.00,WUHU216HW,2013-09-17 20:32:00,
2013-09-17 13:37:00,63.4,55.6,29.90,NNE,23,0.7,1.1,76,0.00,,,0.00,WUHU216HW,2013-09-17 20:37:00,
2013-09-17 13:42:00,63.4,55.6,29.89,SW,225,0.2,1.1,76,0.00,,,0.00,WUHU216HW,2013-09-17 20:42:00,
2013-09-17 13:47:00,63.4,55.6,29.89,South,180,1.6,1.6,76,0.00,,,0.00,WUHU216HW,2013-09-17 20:47:00,
2013-09-17 13:52:00,63.2,55.4,29.89,SSW,203,0.7,1.6,76,0.00,,,0.00,WUHU216HW,2013-09-17 20:52:00,
2013-09-17 13:57:00,63.2,55.4,29.89,SW,225,0.0,1.6,76,0.00,,,0.00,WUHU216HW,2013-09-17 20:57:00,
2013-09-17 14:02:00,63.4,55.6,29.89,SW,225,0.9,0.9,76,0.00,,,0.00,WUHU216HW,2013-09-17 21:02:00,
2013-09-17 14:07:00,63.4,55.6,29.89,SSW,203,0.4,0.9,76,0.00,,,0.00,WUHU216HW,2013-09-17 21:07:00,
2013-09-17 14:12:00,63.4,55.6,29.89,East,90,0.0,0.9,76,0.00,,,0.00,WUHU216HW,2013-09-17 21:12:00,
2013-09-17 14:17:00,63.4,55.6,29.89,East,90,0.0,0.4,76,0.00,,,0.00,WUHU216HW,2013-09-17 21:17:00,
2013-09-17 14:22:00,63.2,55.4,29.89,East,90,0.4,0.4,76,0.00,,,0.00,WUHU216HW,2013-09-17 21:22:00,
2013-09-17 14:27:00,63.4,55.6,29.89,ENE,68,0.2,0.4,76,0.00,,,0.00,WUHU216HW,2013-09-17 21:27:00,
2013-09-17 14:32:00,63.4,55.6,29.89,NNE,23,0.2,0.4,76,0.00,,,0.00,WUHU216HW,2013-09-17 21:32:00,
2013-09-17 14:37:00,63.5,56.2,29.89,NNE,23,0.0,0.4,77,0.00,,,0.00,WUHU216HW,2013-09-17 21:37:00,
2013-09-17 14:41:00,63.5,55.8,29.89,NNE,23,2.0,2.0,76,0.00,,,0.00,WUHU216HW,2013-09-17 21:41:00,
2013-09-17 14:46:00,63.9,56.2,29.89,WSW,248,0.4,2.2,76,0.00,,,0.00,WUHU216HW,2013-09-17 21:46:00,
2013-09-17 14:51:00,64.1,56.0,29.89,South,180,1.1,2.2,75,0.00,,,0.00,WUHU216HW,2013-09-17 21:51:00,
2013-09-17 14:56:00,64.1,56.0,29.89,South,180,1.1,1.6,75,0.00,,,0.00,WUHU216HW,2013-09-17 21:56:00,
2013-09-17 15:01:00,64.1,56.0,29.89,NE,45,1.1,1.1,75,0.00,,,0.00,WUHU216HW,2013-09-17 22:01:00,
2013-09-17 15:06:00,63.7,55.6,29.89,NE,45,0.4,1.3,75,0.00,,,0.00,WUHU216HW,2013-09-17 22:06:00,
2013-09-17 15:12:00,63.7,55.6,29.89,North,0,0.4,1.3,75,0.00,,,0.00,WUHU216HW,2013-09-17 22:12:00,
2013-09-17 15:17:00,63.5,55.4,29.90,NNE,23,1.1,1.1,75,0.00,,,0.00,WUHU216HW,2013-09-17 22:17:00,
2013-09-17 15:22:00,63.4,55.6,29.90,NNE,23,0.2,1.1,76,0.00,,,0.00,WUHU216HW,2013-09-17 22:22:00,
2013-09-17 15:27:00,63.4,55.6,29.90,NNE,23,0.7,1.1,76,0.00,,,0.00,WUHU216HW,2013-09-17 22:27:00,
2013-09-17 15:32:00,63.4,55.6,29.89,East,90,0.0,0.7,76,0.00,,,0.00,WUHU216HW,2013-09-17 22:32:00,
2013-09-17 15:37:00,63.4,55.3,29.89,NE,45,0.2,0.7,75,0.00,,,0.00,WUHU216HW,2013-09-17 22:37:00,
2013-09-17 15:41:00,63.4,55.3,29.89,NE,45,0.0,0.7,75,0.00,,,0.00,WUHU216HW,2013-09-17 22:41:00,
2013-09-17 15:47:00,63.2,55.4,29.89,South,180,0.4,0.4,76,0.00,,,0.00,WUHU216HW,2013-09-17 22:47:00,
2013-09-17 15:52:00,63.2,55.4,29.89,South,180,0.0,0.4,76,0.00,,,0.00,WUHU216HW,2013-09-17 22:52:00,
2013-09-17 15:57:00,63.4,55.6,29.89,South,180,0.7,1.1,76,0.00,,,0.00,WUHU216HW,2013-09-17 22:57:00,
2013-09-17 16:02:00,63.4,55.6,29.89,South,180,0.7,1.1,76,0.00,,,0.00,WUHU216HW,2013-09-17 23:02:00,
2013-09-17 16:07:00,63.4,55.6,29.89,South,180,0.0,0.7,76,0.00,,,0.00,WUHU216HW,2013-09-17 23:07:00,
2013-09-17 16:12:00,63.2,55.4,29.89,SSE,158,0.9,0.9,76,0.00,,,0.00,WUHU216HW,2013-09-17 23:12:00,
2013-09-17 16:17:00,63.4,55.6,29.88,South,180,1.8,1.8,76,0.00,,,0.00,WUHU216HW,2013-09-17 23:17:00,
2013-09-17 16:22:00,63.2,55.4,29.88,SSW,203,0.4,1.8,76,0.00,,,0.00,WUHU216HW,2013-09-17 23:22:00,
2013-09-17 16:27:00,63.2,55.1,29.88,West,270,0.4,1.8,75,0.00,,,0.00,WUHU216HW,2013-09-17 23:27:00,
2013-09-17 16:32:00,63.2,55.1,29.88,West,270,0.0,0.9,75,0.00,,,0.00,WUHU216HW,2013-09-17 23:32:00,
2013-09-17 16:37:00,63.0,54.9,29.88,WSW,248,0.0,0.4,75,0.00,,,0.00,WUHU216HW,2013-09-17 23:37:00,
2013-09-17 16:42:00,63.2,55.1,29.88,NE,45,0.0,1.1,75,0.00,,,0.00,WUHU216HW,2013-09-17 23:42:00,
2013-09-17 16:47:00,63.4,55.3,29.88,SSW,203,0.9,1.1,75,0.00,,,0.00,WUHU216HW,2013-09-17 23:47:00,
2013-09-17 16:52:00,63.2,55.1,29.88,North,0,0.4,0.9,75,0.00,,,0.00,WUHU216HW,2013-09-17 23:52:00,
2013-09-17 16:57:00,63.4,55.3,29.88,NE,45,0.0,0.9,75,0.00,,,0.00,WUHU216HW,2013-09-17 23:57:00,
2013-09-17 17:02:00,63.4,55.3,29.88,NNE,23,0.0,0.7,75,0.00,,,0.00,WUHU216HW,2013-09-18 00:02:00,
2013-09-17 17:07:00,63.4,54.9,29.88,NW,315,0.0,0.4,74,0.00,,,0.00,WUHU216HW,2013-09-18 00:07:00,
2013-09-17 17:12:00,63.4,55.3,29.88,NNW,338,0.2,0.2,75,0.00,,,0.00,WUHU216HW,2013-09-18 00:12:00,
2013-09-17 17:17:00,63.4,55.3,29.88,NNW,338,0.2,0.4,75,0.00,,,0.00,WUHU216HW,2013-09-18 00:17:00,
2013-09-17 17:22:00,63.4,55.3,29.88,NNW,338,0.0,0.9,75,0.00,,,0.00,WUHU216HW,2013-09-18 00:22:00,
2013-09-17 17:27:00,63.4,55.3,29.88,NNW,338,0.0,0.9,75,0.00,,,0.00,WUHU216HW,2013-09-18 00:27:00,
2013-09-17 17:32:00,63.4,55.6,29.88,NE,45,0.0,0.7,76,0.00,,,0.00,WUHU216HW,2013-09-18 00:32:00,
2013-09-17 17:37:00,63.4,55.3,29.88,SSE,158,1.1,1.1,75,0.00,,,0.00,WUHU216HW,2013-09-18 00:37:00,
2013-09-17 17:42:00,63.4,55.3,29.89,SSE,158,0.2,1.1,75,0.00,,,0.00,WUHU216HW,2013-09-18 00:42:00,
2013-09-17 17:47:00,63.4,55.3,29.89,SSW,203,0.0,1.8,75,0.00,,,0.00,WUHU216HW,2013-09-18 00:47:00,
2013-09-17 17:52:00,63.2,55.1,29.89,North,0,0.9,1.8,75,0.00,,,0.00,WUHU216HW,2013-09-18 00:52:00,
2013-09-17 17:57:00,62.8,54.7,29.89,ENE,68,0.0,1.1,75,0.00,,,0.00,WUHU216HW,2013-09-18 00:57:00,
2013-09-17 18:02:00,62.8,54.7,29.89,North,0,0.0,0.9,75,0.00,,,0.00,WUHU216HW,2013-09-18 01:02:00,
2013-09-17 18:07:00,62.6,54.2,29.89,ENE,68,0.2,1.8,74,0.00,,,0.00,WUHU216HW,2013-09-18 01:07:00,
2013-09-17 18:12:00,62.5,54.0,29.89,ENE,68,0.4,1.8,74,0.00,,,0.00,WUHU216HW,2013-09-18 01:12:00,
2013-09-17 18:17:00,62.5,54.0,29.89,East,90,1.1,1.1,74,0.00,,,0.00,WUHU216HW,2013-09-18 01:17:00,
2013-09-17 18:22:00,62.3,53.8,29.89,WNW,293,0.4,1.1,74,0.00,,,0.00,WUHU216HW,2013-09-18 01:22:00,
2013-09-17 18:27:00,62.3,53.8,29.89,NNE,23,0.2,1.1,74,0.00,,,0.00,WUHU216HW,2013-09-18 01:27:00,
2013-09-17 18:32:00,62.1,53.7,29.90,North,0,1.1,1.1,74,0.00,,,0.00,WUHU216HW,2013-09-18 01:32:00,
2013-09-17 18:37:00,61.9,53.6,29.90,NNE,23,0.4,1.3,74,0.00,,,0.00,WUHU216HW,2013-09-18 01:37:00,
2013-09-17 18:42:00,61.9,53.6,29.90,North,0,0.7,1.3,74,0.00,,,0.00,WUHU216HW,2013-09-18 01:42:00,
2013-09-17 18:47:00,61.9,53.9,29.90,North,0,0.2,0.7,75,0.00,,,0.00,WUHU216HW,2013-09-18 01:47:00,
2013-09-17 18:52:00,61.9,53.9,29.90,North,0,0.4,0.7,75,0.00,,,0.00,WUHU216HW,2013-09-18 01:52:00,
2013-09-17 18:57:00,61.9,54.3,29.90,North,0,0.0,0.4,76,0.00,,,0.00,WUHU216HW,2013-09-18 01:57:00,
2013-09-17 19:02:00,61.7,54.1,29.90,North,0,0.0,0.4,76,0.00,,,0.00,WUHU216HW,2013-09-18 02:02:00,
2013-09-17 19:07:00,61.6,53.9,29.90,North,0,0.0,0.0,76,0.00,,,0.00,WUHU216HW,2013-09-18 02:07:00,
2013-09-17 19:12:00,61.4,54.1,29.90,North,0,0.0,0.0,77,0.00,,,0.00,WUHU216HW,2013-09-18 02:12:00,
2013-09-17 19:17:00,61.2,54.0,29.90,North,0,0.0,0.0,77,0.00,,,0.00,WUHU216HW,2013-09-18 02:17:00,
2013-09-17 19:22:00,61.2,54.0,29.90,North,0,0.0,0.0,77,0.00,,,0.00,WUHU216HW,2013-09-18 02:22:00,
2013-09-17 19:27:00,61.0,53.8,29.90,North,0,0.0,0.0,77,0.00,,,0.00,WUHU216HW,2013-09-18 02:27:00,
2013-09-17 19:32:00,60.8,53.6,29.90,North,0,0.0,0.0,77,0.00,,,0.00,WUHU216HW,2013-09-18 02:32:00,
2013-09-17 19:37:00,60.8,53.6,29.90,North,0,0.0,0.0,77,0.00,,,0.00,WUHU216HW,2013-09-18 02:37:00,
2013-09-17 19:42:00,60.5,53.6,29.90,North,0,0.0,0.4,78,0.00,,,0.00,WUHU216HW,2013-09-18 02:42:00,
2013-09-17 19:47:00,60.1,53.3,29.91,North,0,0.7,0.7,78,0.00,,,0.00,WUHU216HW,2013-09-18 02:47:00,
2013-09-17 19:52:00,60.1,53.6,29.91,North,0,0.0,0.7,79,0.00,,,0.00,WUHU216HW,2013-09-18 02:52:00,
2013-09-17 19:58:00,59.9,53.5,29.91,North,0,0.0,0.7,79,0.00,,,0.00,WUHU216HW,2013-09-18 02:58:00,
2013-09-17 20:03:00,59.8,53.3,29.91,North,0,0.4,0.4,79,0.00,,,0.00,WUHU216HW,2013-09-18 03:03:00,
2013-09-17 20:08:00,59.6,53.1,29.92,North,0,0.4,0.7,79,0.00,,,0.00,WUHU216HW,2013-09-18 03:08:00,
2013-09-17 20:13:00,59.6,53.5,29.92,North,0,0.0,0.7,80,0.00,,,0.00,WUHU216HW,2013-09-18 03:13:00,
2013-09-17 20:18:00,59.6,53.5,29.92,North,0,0.0,0.4,80,0.00,,,0.00,WUHU216HW,2013-09-18 03:18:00,
2013-09-17 20:23:00,59.4,53.3,29.92,North,0,0.0,0.0,80,0.00,,,0.00,WUHU216HW,2013-09-18 03:23:00,
2013-09-17 20:28:00,59.6,53.8,29.92,North,0,0.4,0.7,81,0.00,,,0.00,WUHU216HW,2013-09-18 03:28:00,
2013-09-17 20:33:00,59.4,53.7,29.92,North,0,0.4,0.7,81,0.00,,,0.00,WUHU216HW,2013-09-18 03:33:00,
2013-09-17 20:38:00,59.4,53.7,29.92,North,0,0.4,0.7,81,0.00,,,0.00,WUHU216HW,2013-09-18 03:38:00,
2013-09-17 20:43:00,59.4,53.7,29.92,North,0,0.0,0.4,81,0.00,,,0.00,WUHU216HW,2013-09-18 03:43:00,
2013-09-17 20:48:00,59.4,53.7,29.93,North,0,0.0,0.4,81,0.00,,,0.00,WUHU216HW,2013-09-18 03:48:00,
2013-09-17 20:53:00,59.4,53.7,29.93,WSW,248,0.0,0.9,81,0.00,,,0.00,WUHU216HW,2013-09-18 03:53:00,
2013-09-17 20:58:00,59.4,53.7,29.93,WSW,248,0.4,0.9,81,0.00,,,0.00,WUHU216HW,2013-09-18 03:58:00,
2013-09-17 21:01:00,59.4,53.7,29.93,West,270,0.2,0.9,81,0.00,,,0.00,WUHU216HW,2013-09-18 04:01:00,
2013-09-17 21:02:00,59.2,53.5,29.93,West,270,0.2,0.4,81,0.00,,,0.00,WUHU216HW,2013-09-18 04:02:00,
2013-09-17 21:07:00,59.2,53.5,29.93,West,270,0.7,0.7,81,0.00,,,0.00,WUHU216HW,2013-09-18 04:07:00,
2013-09-17 21:12:00,59.0,53.3,29.93,WNW,293,0.4,0.7,81,0.00,,,0.00,WUHU216HW,2013-09-18 04:12:00,
2013-09-17 21:17:00,59.0,53.3,29.93,NE,45,0.0,0.7,81,0.00,,,0.00,WUHU216HW,2013-09-18 04:17:00,
2013-09-17 21:22:00,59.0,53.3,29.93,West,270,1.1,1.1,81,0.00,,,0.00,WUHU216HW,2013-09-18 04:22:00,
2013-09-17 21:27:00,59.0,53.6,29.93,West,270,0.0,1.1,82,0.00,,,0.00,WUHU216HW,2013-09-18 04:27:00,
2013-09-17 21:32:00,59.0,53.6,29.93,West,270,0.2,1.1,82,0.00,,,0.00,WUHU216HW,2013-09-18 04:32:00,
2013-09-17 21:37:00,59.0,53.6,29.93,West,270,0.4,0.7,82,0.00,,,0.00,WUHU216HW,2013-09-18 04:37:00,
2013-09-17 21:42:00,58.9,53.4,29.93,WNW,293,0.4,0.9,82,0.00,,,0.00,WUHU216HW,2013-09-18 04:42:00,
2013-09-17 21:47:00,58.9,53.4,29.93,WNW,293,1.1,1.1,82,0.00,,,0.00,WUHU216HW,2013-09-18 04:47:00,
2013-09-17 21:52:00,58.7,53.2,29.93,WNW,293,0.0,1.1,82,0.00,,,0.00,WUHU216HW,2013-09-18 04:52:00,
2013-09-17 21:57:00,58.7,53.2,29.93,WNW,293,0.0,1.1,82,0.00,,,0.00,WUHU216HW,2013-09-18 04:57:00,
2013-09-17 22:02:00,58.7,53.2,29.93,WNW,293,0.0,0.4,82,0.00,,,0.00,WUHU216HW,2013-09-18 05:02:00,
2013-09-17 22:07:00,58.7,53.2,29.93,North,0,1.1,1.1,82,0.00,,,0.00,WUHU216HW,2013-09-18 05:07:00,
2013-09-17 22:12:00,58.7,53.2,29.93,North,0,0.0,1.1,82,0.00,,,0.00,WUHU216HW,2013-09-18 05:12:00,
2013-09-17 22:17:00,58.7,53.6,29.93,North,0,0.7,1.1,83,0.00,,,0.00,WUHU216HW,2013-09-18 05:17:00,
2013-09-17 22:22:00,58.7,53.6,29.94,North,0,0.0,0.7,83,0.00,,,0.00,WUHU216HW,2013-09-18 05:22:00,
2013-09-17 22:27:00,58.7,53.6,29.93,North,0,0.4,0.7,83,0.00,,,0.00,WUHU216HW,2013-09-18 05:27:00,
2013-09-17 22:31:00,58.7,53.6,29.93,North,0,0.0,0.4,83,0.00,,,0.00,WUHU216HW,2013-09-18 05:31:00,
2013-09-17 22:36:00,58.7,53.6,29.93,North,0,0.0,0.4,83,0.00,,,0.00,WUHU216HW,2013-09-18 05:36:00,
2013-09-17 22:41:00,58.7,53.6,29.94,North,0,0.0,0.2,83,0.00,,,0.00,WUHU216HW,2013-09-18 05:41:00,
2013-09-17 22:46:00,58.7,53.6,29.94,North,0,1.1,1.1,83,0.00,,,0.00,WUHU216HW,2013-09-18 05:46:00,
2013-09-17 22:51:00,58.9,53.7,29.94,North,0,0.2,1.1,83,0.00,,,0.00,WUHU216HW,2013-09-18 05:51:00,
2013-09-17 22:56:00,58.9,53.4,29.94,North,0,0.7,1.1,82,0.00,,,0.00,WUHU216HW,2013-09-18 05:56:00,
2013-09-17 23:01:00,58.9,53.4,29.94,North,0,0.0,0.7,82,0.00,,,0.00,WUHU216HW,2013-09-18 06:01:00,
2013-09-17 23:06:00,58.9,53.4,29.94,North,0,0.0,0.7,82,0.00,,,0.00,WUHU216HW,2013-09-18 06:06:00,
2013-09-17 23:11:00,58.7,53.2,29.94,North,0,0.0,0.0,82,0.00,,,0.00,WUHU216HW,2013-09-18 06:11:00,
2013-09-17 23:16:00,58.7,53.2,29.94,North,0,0.0,0.0,82,0.00,,,0.00,WUHU216HW,2013-09-18 06:16:00,
2013-09-17 23:21:00,58.7,53.2,29.94,North,0,0.0,0.0,82,0.00,,,0.00,WUHU216HW,2013-09-18 06:21:00,
2013-09-17 23:26:00,58.5,53.0,29.94,SE,135,0.0,0.0,82,0.00,,,0.00,WUHU216HW,2013-09-18 06:26:00,
2013-09-17 23:31:00,58.3,52.8,29.94,SE,135,0.0,0.0,82,0.00,,,0.00,WUHU216HW,2013-09-18 06:31:00,
2013-09-17 23:36:00,58.3,52.8,29.94,SW,225,0.0,0.2,82,0.00,,,0.00,WUHU216HW,2013-09-18 06:36:00,
2013-09-17 23:41:00,58.1,53.0,29.94,South,180,0.2,0.2,83,0.00,,,0.00,WUHU216HW,2013-09-18 06:41:00,
2013-09-17 23:46:00,58.0,52.8,29.94,ESE,113,0.0,0.2,83,0.00,,,0.00,WUHU216HW,2013-09-18 06:46:00,
2013-09-17 23:51:00,58.0,52.8,29.95,ESE,113,0.0,0.2,83,0.00,,,0.00,WUHU216HW,2013-09-18 06:51:00,
2013-09-17 23:56:00,58.0,52.8,29.95,ESE,113,0.0,0.0,83,0.00,,,0.00,WUHU216HW,2013-09-18 06:56:00,